Date,TemperatureHighF,TemperatureAvgF,TemperatureLowF,DewpointHighF,DewpointAvgF,DewpointLowF,HumidityHigh,HumidityAvg,HumidityLow,PressureMaxIn,PressureMinIn,WindSpeedMaxMPH,WindSpeedAvgMPH,GustSpeedMaxMPH,PrecipitationSumIn
2013-1-1,41.5,40.6,39.6,31.4,30.9,30.4,71,69,66,29.99,29.95,16,2,17,0.00
2013-1-2,34.9,29.0,26.8,17.7,16.4,15.6,64,60,50,30.23,30.11,12,0,12,0.00
2013-1-3,34.4,29.1,22.2,23.0,18.3,13.6,77,64,45,30.25,30.14,15,1,15,0.00
2013-1-4,39.2,34.6,29.9,26.3,23.6,20.9,76,64,54,30.19,30.07,30,3,30,0.00
2013-1-5,42.1,34.2,28.2,26.6,23.1,21.0,82,65,48,30.38,30.12,21,2,21,0.00
2013-1-6,50.3,38.3,31.0,35.5,29.5,24.1,88,72,47,30.27,30.03,13,0,15,0.00
2013-1-7,48.9,39.0,26.1,32.6,27.6,21.0,81,65,49,30.45,30.11,21,2,21,0.00
2013-1-8,51.9,37.2,24.0,37.4,29.2,19.8,89,75,51,30.48,30.39,12,0,13,0.00
2013-1-9,58.4,47.7,33.9,47.6,39.0,29.4,91,73,55,30.41,30.20,17,1,18,0.00
2013-1-10,51.4,43.4,32.6,36.3,30.1,26.2,78,61,44,30.57,30.33,18,2,19,0.00
2013-1-11,52.5,42.1,30.6,50.0,37.4,25.3,91,83,72,30.52,30.08,17,0,17,0.20
2013-1-12,55.1,48.3,43.9,50.5,45.0,41.1,91,88,80,30.19,30.08,16,1,16,0.01
2013-1-13,53.9,47.3,42.1,51.6,44.8,39.4,92,91,89,30.19,30.04,14,1,14,0.01
2013-1-14,59.7,54.3,45.3,57.3,50.3,41.0,92,87,72,30.25,30.00,23,1,23,0.07
2013-1-15,45.1,39.0,36.0,40.8,36.0,32.8,90,89,85,30.35,30.15,19,4,19,0.63
2013-1-16,43.5,39.6,36.3,40.9,36.9,33.3,91,90,89,30.16,29.84,20,3,20,0.43
2013-1-17,42.2,40.4,37.1,39.7,36.5,33.1,92,86,75,30.13,29.98,10,0,10,0.07
2013-1-18,37.1,31.5,22.3,33.1,21.3,12.6,85,68,42,30.54,30.07,28,4,28,0.05
2013-1-19,53.9,40.3,23.9,34.5,25.3,18.1,81,58,28,30.49,30.02,23,4,23,0.00
2013-1-20,56.1,46.5,34.6,34.0,26.4,14.2,58,47,32,30.08,29.80,27,6,27,0.00
2013-1-21,38.1,31.8,24.3,25.8,16.5,9.0,84,55,37,30.15,29.79,25,3,25,0.00
2013-1-22,26.1,20.3,15.2,20.8,4.2,-0.7,80,50,40,30.29,29.89,31,7,31,0.00
2013-1-23,22.6,17.1,11.3,5.0,1.1,-2.0,57,50,40,30.34,30.19,26,3,26,0.00
2013-1-24,25.6,20.0,15.7,5.1,2.5,-1.8,59,47,33,30.48,30.13,34,6,34,0.00
2013-1-25,24.3,19.1,14.1,14.9,7.1,1.5,82,60,42,30.49,30.08,12,0,12,0.00
2013-1-26,29.3,21.2,10.1,16.3,11.7,5.0,83,68,50,30.43,30.08,26,4,28,0.03
2013-1-27,36.3,24.6,15.5,17.9,12.5,7.0,76,61,40,30.59,30.43,14,1,16,0.01
2013-1-28,42.4,32.4,18.8,38.2,27.9,13.1,87,83,77,30.54,30.06,16,1,16,0.06
2013-1-29,58.4,45.3,40.4,49.5,40.2,36.5,90,83,69,30.17,30.05,8,0,11,0.00
2013-1-30,60.1,51.7,45.1,56.1,48.6,42.3,92,89,81,30.07,29.44,37,6,37,0.00
2013-1-31,59.9,46.2,30.6,57.2,31.7,9.7,91,60,39,29.92,29.21,40,11,40,0.41
2013-2-1,32.0,27.5,20.1,24.7,13.2,5.5,86,57,41,30.33,29.84,32,6,37,0.05
2013-2-2,29.1,22.5,11.8,22.8,10.7,2.1,84,61,49,30.38,30.07,17,2,17,0.00
2013-2-3,27.0,25.5,23.8,22.8,21.7,20.0,86,85,84,30.07,29.94,0,0,4,0.00
2013-2-4,30.7,29.1,26.4,22.8,17.3,12.2,75,62,51,30.08,29.97,25,2,25,0.01
2013-2-5,41.7,35.2,30.0,32.3,28.4,22.0,86,77,59,29.97,29.88,13,1,13,0.00
2013-2-6,38.4,31.6,27.7,29.9,27.6,23.9,88,85,65,30.14,29.92,26,2,26,0.00
2013-2-7,40.8,38.0,35.6,33.8,28.5,24.9,76,69,65,30.38,30.24,15,5,15,0.00
2013-2-8,46.2,41.0,34.0,43.6,37.5,30.8,91,87,76,30.24,29.57,29,10,31,1.70
2013-2-9,36.7,31.2,27.1,31.2,20.9,13.7,88,67,51,30.37,29.77,35,10,40,0.01
2013-2-10,38.7,29.6,18.9,30.6,16.3,9.2,79,59,38,30.51,30.34,16,2,17,0.00
2013-2-11,54.7,46.8,36.6,52.4,43.7,31.0,92,89,80,30.34,29.69,28,3,28,0.41
2013-2-12,51.9,44.1,32.0,48.5,31.8,26.1,88,64,44,30.00,29.76,24,3,31,0.00
2013-2-13,43.7,35.6,26.8,34.4,29.9,22.9,88,80,68,29.99,29.63,25,4,25,0.32
2013-2-14,47.0,37.0,32.8,38.5,32.9,29.8,90,86,68,30.01,29.71,12,2,12,0.07
2013-2-15,57.0,46.9,41.4,42.7,37.7,34.6,85,71,50,30.05,29.94,15,2,15,0.01
2013-2-16,41.3,36.6,28.8,34.5,31.4,24.8,88,82,72,29.98,29.74,24,6,24,0.12
2013-2-17,32.7,29.1,24.6,24.8,12.3,3.3,84,50,40,30.09,29.71,36,10,37,0.00
2013-2-18,35.7,28.0,20.5,21.3,10.9,3.4,66,50,40,30.34,30.09,30,5,31,0.00
2013-2-19,48.7,45.0,33.4,45.5,41.0,21.2,89,86,61,30.25,29.73,19,4,20,0.12
2013-2-20,36.7,31.3,26.0,20.8,14.4,10.4,56,50,44,30.10,29.93,32,8,38,0.00
2013-2-21,36.6,29.4,22.8,17.5,14.2,10.6,65,54,45,30.30,30.07,32,7,32,0.00
2013-2-22,38.4,32.3,25.7,31.7,23.7,15.0,87,71,59,30.42,30.24,17,3,17,0.08
2013-2-23,47.4,43.4,35.1,45.2,40.8,31.6,92,91,87,30.25,29.76,13,3,13,0.22
2013-2-24,51.1,41.4,32.5,42.8,32.5,20.4,91,73,51,30.05,29.75,33,7,33,0.01
2013-2-25,48.0,35.2,27.5,28.8,23.8,19.5,82,64,46,30.25,30.05,19,2,19,0.00
2013-2-26,48.0,37.5,25.4,45.5,33.0,21.3,91,84,74,30.26,29.70,30,6,30,1.06
2013-2-27,57.2,49.2,44.4,49.0,43.5,37.7,92,82,57,29.71,29.50,25,3,25,0.03
2013-2-28,47.6,41.6,36.9,40.1,35.1,29.6,90,78,57,29.70,29.60,24,1,24,0.13
2013-3-1,45.2,39.6,32.8,32.9,29.9,26.6,84,69,56,29.83,29.67,27,3,27,0.00
2013-3-2,42.7,36.7,30.0,27.2,25.0,22.8,76,63,52,29.84,29.75,21,3,21,0.00
2013-3-3,39.2,34.0,30.6,23.2,20.0,17.0,67,57,45,29.83,29.73,29,6,31,0.00
2013-3-4,41.4,36.1,30.7,23.6,20.8,16.0,65,55,47,29.98,29.82,34,10,34,0.00
2013-3-5,47.9,36.1,28.2,32.6,24.5,19.5,84,64,47,30.07,29.91,17,2,22,0.00
2013-3-6,41.3,39.1,34.3,37.6,34.9,31.1,88,85,75,29.92,29.56,54,19,56,1.11
2013-3-7,47.5,40.1,34.2,33.0,31.1,28.6,88,71,55,30.08,29.82,34,13,34,0.04
2013-3-8,40.8,35.7,31.0,35.9,30.7,26.2,87,82,66,30.19,30.03,27,9,27,0.09
2013-3-9,58.9,42.7,29.5,31.7,26.6,21.3,84,57,27,30.32,30.18,24,5,24,0.00
2013-3-10,45.9,36.7,26.1,38.9,31.2,22.0,89,81,70,30.40,30.31,19,2,19,0.00
2013-3-11,55.7,45.1,31.6,49.1,40.8,28.5,91,85,74,30.33,30.08,21,2,21,0.01
2013-3-12,55.6,51.6,43.2,53.0,47.7,35.6,92,87,72,30.09,29.73,25,5,33,0.56
2013-3-13,52.3,42.1,34.9,35.7,31.0,24.8,84,67,43,29.98,29.87,22,3,26,0.00
2013-3-14,43.0,37.1,30.2,24.8,18.4,14.0,65,48,36,30.05,29.95,33,6,33,0.00
2013-3-15,52.0,39.9,28.4,31.2,21.4,13.0,71,50,34,30.08,29.80,24,3,26,0.00
2013-3-16,43.9,39.4,33.6,34.9,31.4,27.1,84,73,57,29.92,29.73,23,4,23,0.00
2013-3-17,41.9,37.0,31.6,32.1,26.4,21.3,92,67,47,30.31,29.91,21,3,21,0.00
2013-3-18,47.7,38.4,31.4,45.2,29.1,19.5,91,70,56,30.37,29.87,22,4,22,0.74
2013-3-19,54.4,46.7,41.0,45.6,40.1,23.5,91,79,51,29.88,29.72,24,3,24,0.20
2013-3-20,50.1,41.3,28.0,30.5,22.4,16.0,75,50,29,29.98,29.81,25,4,25,0.00
2013-3-21,42.0,34.1,29.1,32.6,23.5,10.9,85,66,46,29.84,29.68,23,6,23,0.07
2013-3-22,41.9,34.7,27.9,22.8,18.8,11.8,64,53,44,29.93,29.83,32,5,33,0.00
2013-3-23,43.5,39.7,36.5,23.3,21.8,20.6,55,50,45,29.97,29.93,11,0,12,0.00
2013-3-24,45.9,36.4,25.7,28.6,23.1,18.8,84,60,38,30.00,29.67,19,1,19,0.00
2013-3-25,39.1,34.8,33.0,35.2,31.4,28.5,90,87,69,29.70,29.42,26,6,26,0.91
2013-3-26,49.2,40.8,33.5,39.1,33.3,30.6,90,76,56,29.92,29.65,18,1,18,0.07
2013-3-27,51.6,43.6,33.7,33.3,29.3,24.9,80,59,40,30.05,29.92,31,4,31,0.00
2013-3-28,48.7,42.3,35.0,31.5,28.6,26.0,74,60,46,30.16,30.03,23,4,23,0.00
2013-3-29,55.6,45.5,34.9,33.5,29.0,25.5,74,55,39,30.20,30.11,22,3,23,0.00
2013-3-30,58.4,45.1,29.1,35.1,28.7,24.0,86,58,30,30.22,30.12,18,2,20,0.00
2013-3-31,53.9,46.4,37.0,49.3,40.4,32.5,91,80,61,30.18,29.74,18,2,19,0.20
2013-4-1,66.9,52.5,42.2,49.8,40.8,20.4,90,68,42,29.93,29.68,28,3,30,0.03
2013-4-2,48.2,40.1,27.7,22.9,17.9,13.8,71,43,31,30.15,29.93,25,4,26,0.00
2013-4-3,50.4,40.6,29.0,21.0,15.3,9.4,60,39,27,30.34,30.13,28,5,29,0.00
2013-4-4,46.2,38.2,25.8,32.4,21.3,12.2,73,53,33,30.44,30.14,22,2,22,0.01
2013-4-5,62.4,48.6,37.9,48.0,33.8,24.0,91,63,27,30.15,29.77,22,4,22,0.97
2013-4-6,49.7,42.7,35.5,30.1,24.7,16.4,76,51,31,30.35,29.99,24,5,25,0.00
2013-4-7,56.4,47.1,32.3,45.6,38.3,26.7,87,72,60,30.35,30.05,27,4,27,0.00
2013-4-8,74.1,59.8,49.8,54.1,48.7,43.6,82,69,46,30.11,30.02,17,2,17,0.00
2013-4-9,83.4,69.5,57.4,57.1,54.0,50.9,82,61,40,30.06,29.96,20,3,20,0.00
2013-4-10,88.8,73.4,59.4,60.7,56.1,50.1,78,58,37,29.97,29.80,30,3,30,0.00
2013-4-11,74.1,57.6,47.8,59.4,50.8,44.8,90,79,59,29.95,29.84,27,6,27,0.00
2013-4-12,65.9,54.0,47.6,62.7,51.2,44.6,92,91,85,29.91,29.64,23,6,25,0.20
2013-4-13,62.6,52.1,42.6,48.0,42.6,39.4,91,73,46,29.98,29.69,19,3,20,0.03
2013-4-14,65.0,54.7,40.7,49.8,39.9,32.9,90,62,35,30.20,29.98,29,2,32,0.00
2013-4-15,56.2,50.7,47.2,45.4,42.7,39.0,82,74,66,30.37,30.16,19,2,19,0.02
2013-4-16,66.5,57.3,48.2,55.1,50.3,43.9,89,78,66,30.37,30.17,21,2,21,0.01
2013-4-17,71.8,58.3,49.8,61.4,50.3,42.1,88,75,59,30.29,30.13,16,1,18,0.00
2013-4-18,66.3,57.3,49.1,57.5,51.7,42.1,90,82,71,30.32,30.11,16,1,16,0.00
2013-4-19,68.7,60.8,57.1,62.7,57.5,54.5,91,89,78,30.11,29.71,33,4,33,0.19
2013-4-20,62.5,53.5,47.0,60.1,39.6,27.8,92,64,36,30.31,29.73,25,5,26,0.38
2013-4-21,52.2,45.3,37.3,32.4,27.5,22.4,61,51,35,30.60,30.31,22,4,22,0.00
2013-4-22,51.9,48.6,47.2,39.5,38.5,37.8,72,69,61,30.54,30.46,30,15,31,0.00
2013-4-23,49.5,46.5,44.4,43.2,40.9,38.5,85,81,72,30.46,30.12,26,9,26,0.00
2013-4-24,61.9,52.0,38.7,52.3,46.2,34.5,90,81,66,30.14,29.90,34,3,34,0.00
2013-4-25,66.8,55.3,45.2,54.1,38.1,30.0,88,56,33,30.31,29.92,31,4,31,0.02
2013-4-26,68.0,54.2,38.3,44.5,34.9,26.0,88,55,27,30.43,30.31,24,2,24,0.00
2013-4-27,65.0,52.4,38.3,43.0,37.6,31.8,87,61,34,30.44,30.33,18,1,18,0.00
2013-4-28,67.8,54.0,38.6,50.0,39.4,29.4,91,64,29,30.34,30.22,12,0,12,0.00
2013-4-29,57.7,55.2,53.9,54.8,51.8,48.8,91,89,79,30.24,30.14,13,1,14,1.01
2013-4-30,62.7,56.3,50.8,51.8,49.5,44.1,92,79,67,30.30,30.14,27,6,27,0.04
2013-5-1,62.1,52.0,44.2,49.4,44.5,39.1,88,77,48,30.46,30.29,24,5,24,0.00
2013-5-2,62.2,53.2,42.7,49.0,43.5,38.3,90,72,51,30.46,30.34,19,3,19,0.00
2013-5-3,57.2,51.6,44.1,45.9,42.6,39.2,87,73,57,30.44,30.35,29,6,29,0.00
2013-5-4,61.9,51.9,43.6,49.4,43.4,39.9,89,74,58,30.37,30.25,18,5,25,0.00
2013-5-5,57.7,50.2,45.9,45.8,41.6,38.4,86,73,62,30.27,30.21,24,6,24,0.00
2013-5-6,58.6,52.8,45.7,52.8,48.9,42.1,90,87,79,30.23,30.13,22,6,22,0.00
2013-5-7,61.7,56.5,52.6,57.7,53.8,49.9,92,91,85,30.13,30.02,20,6,20,0.36
2013-5-8,70.6,61.1,55.7,64.9,56.0,52.8,92,84,65,30.04,29.98,15,1,15,0.04
2013-5-9,74.1,62.0,56.6,61.7,56.0,52.8,92,82,59,30.01,29.92,16,0,17,0.07
2013-5-10,80.3,67.8,56.1,63.8,58.3,52.3,92,74,50,30.03,29.91,15,1,15,0.00
2013-5-11,73.6,66.2,61.5,68.2,61.7,57.3,92,86,74,29.95,29.73,27,2,27,0.93
2013-5-12,68.5,61.7,49.5,60.8,48.2,31.5,91,66,34,29.99,29.71,26,3,26,0.11
2013-5-13,60.6,50.8,37.7,44.5,32.9,27.0,88,54,34,30.13,29.99,24,3,24,0.00
2013-5-14,61.0,50.5,36.4,45.3,34.0,29.2,81,57,37,30.19,30.08,22,2,23,0.00
2013-5-15,72.1,62.9,53.3,59.1,53.2,45.4,82,72,61,30.12,29.73,19,2,21,0.00
2013-5-16,84.3,73.6,62.2,66.8,58.5,40.9,89,64,27,29.86,29.72,15,1,15,0.00
2013-5-17,78.4,66.8,56.1,60.3,50.8,41.8,84,60,34,30.21,29.86,15,1,15,0.00
2013-5-18,69.5,62.5,57.9,56.5,53.8,47.4,89,74,60,30.30,30.20,15,0,15,0.08
2013-5-19,63.4,61.0,58.3,60.7,58.3,55.4,92,91,89,30.27,30.15,15,1,19,0.38
2013-5-20,62.8,62.3,62.0,60.5,60.0,59.6,92,92,92,30.18,30.14,8,1,8,0.00
2013-5-22,84.5,74.4,67.6,73.4,67.2,63.9,89,79,68,29.94,29.89,21,3,21,0.00
2013-5-23,78.5,70.1,64.5,70.6,65.6,61.8,91,86,75,29.96,29.79,21,3,21,0.03
2013-5-24,68.5,59.5,47.4,66.1,55.2,39.1,92,86,68,30.03,29.73,27,4,28,0.45
2013-5-25,63.4,54.7,47.3,42.8,38.7,32.6,77,58,37,30.10,29.99,35,6,35,0.01
2013-5-26,71.7,59.0,44.9,44.2,39.4,35.5,80,53,31,30.21,30.08,25,2,26,0.00
2013-5-27,74.6,60.6,42.8,53.7,44.9,34.8,92,62,27,30.28,30.19,16,0,16,0.00
2013-5-28,65.6,61.2,54.1,61.2,56.8,47.8,90,86,78,30.24,30.12,19,1,19,0.37
2013-5-29,89.3,75.1,63.0,72.4,65.3,57.7,88,73,55,30.14,30.09,21,2,21,0.00
2013-5-30,92.5,79.2,68.6,72.6,67.3,62.8,85,69,43,30.19,30.12,14,1,14,0.00
2013-5-31,90.1,77.7,66.2,72.2,66.8,62.3,91,71,49,30.17,30.06,20,1,22,0.00
2013-6-1,88.4,77.7,69.7,72.7,68.0,63.4,86,73,60,30.08,29.97,21,2,21,0.00
2013-6-2,85.8,76.0,67.4,70.7,67.2,63.3,90,76,60,29.97,29.86,23,2,23,0.32
2013-6-3,75.7,71.7,68.8,71.5,68.6,65.9,92,90,86,29.91,29.82,14,0,14,1.04
2013-6-4,77.9,68.3,58.3,65.9,54.2,45.0,90,64,39,30.12,29.89,17,2,18,0.00
2013-6-5,74.3,64.2,51.6,58.4,53.5,47.5,88,71,44,30.20,30.10,9,0,9,0.00
2013-6-6,72.7,65.2,54.4,64.4,59.6,51.1,92,83,70,30.14,29.96,16,1,19,0.01
2013-6-7,71.7,68.5,65.7,69.2,65.8,61.8,92,91,87,29.96,29.52,18,1,18,1.92
2013-6-8,77.0,69.8,63.0,69.7,65.4,60.7,92,86,74,30.09,29.52,21,2,21,0.38
2013-6-9,80.7,71.7,61.7,66.5,63.1,58.7,92,76,54,30.20,30.09,10,0,10,0.01
2013-6-10,74.1,70.0,66.8,71.1,67.3,62.8,92,91,87,30.17,29.85,20,2,21,0.64
2013-6-11,85.3,76.3,0.0,72.4,69.0,66.0,92,79,59,29.85,29.72,21,2,22,0.12
2013-6-12,86.2,77.2,69.8,72.9,66.4,60.6,87,71,53,29.87,29.80,19,2,20,0.00
2013-6-13,86.9,72.1,67.1,75.0,66.3,59.5,91,83,61,29.87,29.43,31,1,31,0.74
2013-6-14,74.5,63.2,56.3,65.0,56.9,53.1,91,81,56,29.95,29.48,27,4,27,0.26
2013-6-15,82.3,70.4,57.9,65.1,60.0,54.7,91,73,47,30.05,29.94,18,1,18,0.00
2013-6-16,88.1,74.3,61.6,72.0,65.5,57.6,92,76,54,30.04,29.87,21,2,23,0.00
2013-6-17,88.2,76.5,67.8,73.7,68.6,64.2,92,78,58,29.96,29.90,15,1,15,0.01
2013-6-18,82.1,71.4,64.7,74.0,66.9,61.6,91,86,75,29.94,29.80,14,1,14,1.46
2013-6-19,72.8,67.0,59.1,63.8,59.7,54.3,92,79,58,30.18,29.85,15,2,16,0.00
2013-6-20,78.3,67.7,54.1,62.9,55.1,47.8,91,68,38,30.31,30.18,13,0,13,0.00
2013-6-21,77.0,68.5,54.5,63.7,57.6,50.3,91,70,49,30.34,30.28,9,0,10,0.00
2013-6-22,82.3,75.8,66.9,66.7,60.8,56.0,74,61,50,30.29,30.18,12,0,12,0.00
2013-6-23,82.2,72.1,62.6,74.0,66.6,56.9,91,83,75,30.23,30.09,26,2,26,0.00
2013-6-24,93.2,83.1,74.8,77.9,73.6,71.0,90,75,54,30.13,30.01,12,2,13,0.00
2013-6-25,93.1,85.8,72.5,76.9,72.8,60.4,91,67,52,30.03,29.89,15,2,15,0.00
2013-6-27,80.3,79.2,76.9,72.9,72.1,71.3,85,80,77,29.69,29.64,12,3,13,0.01
2013-6-28,87.0,79.5,73.2,76.8,72.4,68.7,92,80,69,29.65,29.51,16,1,16,0.03
2013-6-29,83.7,75.8,70.2,74.7,70.5,66.7,92,84,73,29.74,29.51,18,1,18,0.14
2013-6-30,80.1,75.2,72.1,74.5,71.5,68.9,92,88,80,29.91,29.73,18,1,18,0.01
2013-7-1,77.0,74.3,73.4,74.2,71.6,70.6,92,91,90,30.06,29.90,17,2,18,0.41
2013-7-2,83.6,76.3,73.4,75.9,72.2,69.4,92,87,76,30.23,30.05,20,3,21,0.02
2013-7-3,85.3,77.7,71.2,77.2,72.8,67.7,92,85,75,30.28,30.20,21,1,21,0.01
2013-7-4,88.3,78.9,73.4,77.9,73.6,70.6,92,85,67,30.29,30.25,14,1,19,0.00
2013-7-5,92.1,83.5,77.3,77.4,74.2,72.0,86,75,58,30.22,30.16,15,1,15,0.00
2013-7-6,95.9,85.6,75.7,78.9,75.3,71.3,90,73,54,30.20,30.08,18,1,20,0.00
2013-7-7,94.7,85.0,74.3,78.0,74.6,70.1,90,73,57,30.13,29.99,25,2,25,0.00
2013-7-8,90.0,81.4,73.3,74.2,71.5,68.6,88,74,59,30.10,30.02,14,1,14,0.04
2013-7-9,89.8,80.6,73.1,78.1,73.9,69.3,92,81,63,30.11,30.02,14,1,14,0.06
2013-7-10,89.1,78.8,71.7,78.7,73.3,68.3,92,84,66,30.06,29.88,19,1,19,0.25
2013-7-11,82.5,76.9,72.3,75.7,72.1,68.5,91,85,79,29.93,29.86,19,1,19,0.17
2013-7-12,74.5,71.9,69.7,71.9,69.2,67.0,92,91,88,30.04,29.91,23,2,23,1.15
2013-7-13,86.2,77.1,69.9,79.2,72.7,67.4,92,87,72,30.31,30.03,18,1,18,0.00
2013-7-14,92.3,81.7,75.5,77.4,74.1,70.5,92,79,54,30.36,30.29,13,0,13,0.00
2013-7-15,93.8,84.0,74.2,79.6,74.9,69.5,92,76,54,30.31,30.17,14,1,15,0.00
2013-7-16,93.5,84.8,75.1,76.2,72.8,68.2,86,70,50,30.19,30.15,14,1,15,0.00
2013-7-17,96.4,84.6,73.1,78.7,71.9,69.4,92,69,46,30.19,30.10,8,0,8,0.00
2013-7-18,97.8,86.7,76.4,79.9,76.4,70.2,90,74,54,30.12,30.00,13,0,13,0.00
2013-7-19,96.9,87.8,79.8,81.0,77.4,72.9,86,73,57,30.02,29.88,16,1,18,0.00
2013-7-20,94.3,86.8,80.3,80.0,77.0,69.2,83,74,59,29.94,29.79,21,3,21,0.00
2013-7-21,93.8,81.3,72.9,78.5,73.5,69.6,92,79,54,29.96,29.88,13,0,16,0.43
2013-7-22,88.8,79.7,73.6,77.2,73.8,70.2,92,83,66,29.93,29.79,10,0,12,0.00
2013-7-23,89.6,81.8,75.5,79.5,75.0,70.5,91,81,66,29.80,29.61,15,1,15,0.09
2013-7-24,91.0,81.0,72.7,76.2,71.2,67.2,91,74,57,29.89,29.67,16,1,16,0.01
2013-7-25,74.7,68.4,64.5,66.7,61.0,56.8,86,78,66,30.03,29.88,28,6,28,0.02
2013-7-26,82.8,72.7,64.3,69.0,64.1,59.6,86,76,57,30.08,29.99,13,1,13,0.00
2013-7-27,84.7,74.0,64.0,70.3,65.5,59.6,92,77,54,30.09,29.96,10,0,10,0.00
2013-7-28,82.0,74.1,65.4,74.0,69.3,62.1,92,85,74,29.99,29.93,17,1,17,0.00
2013-7-29,87.5,76.4,64.8,71.7,65.9,55.6,92,73,40,30.14,29.96,13,1,14,0.01
2013-7-30,85.3,72.4,58.8,63.4,58.6,54.8,90,66,41,30.20,30.14,15,1,15,0.00
2013-7-31,85.2,73.0,60.5,68.2,62.8,56.3,91,72,54,30.17,30.06,12,0,12,0.00
2013-8-1,80.3,72.2,67.5,70.5,67.5,62.8,92,86,70,30.06,29.83,20,1,21,0.43
2013-8-2,88.1,77.3,66.9,73.2,67.3,61.3,92,74,45,29.97,29.82,14,0,14,0.00
2013-8-3,83.7,74.2,68.3,73.3,66.7,63.8,92,79,58,29.97,29.91,14,0,15,0.00
2013-8-4,84.7,73.7,64.8,67.3,60.1,54.3,91,67,40,29.99,29.87,23,2,23,0.01
2013-8-5,82.5,70.7,58.8,59.4,54.8,48.3,82,61,34,30.08,29.99,16,2,19,0.00
2013-8-6,80.3,68.6,59.5,69.0,63.0,55.0,92,83,66,30.14,30.05,9,0,10,0.09
2013-8-7,77.8,72.5,67.6,71.3,68.2,64.2,91,87,74,30.14,30.08,13,1,19,0.36
2013-8-8,75.0,74.7,74.2,70.1,69.9,69.6,86,85,84,30.09,30.05,16,2,16,0.00
2013-8-9,81.1,78.8,78.4,75.7,74.1,73.5,86,86,84,29.93,29.89,11,2,11,0.01
2013-8-10,87.6,79.8,69.1,74.4,68.7,58.1,89,72,42,30.07,29.92,14,1,14,0.00
2013-8-11,82.7,74.5,66.9,71.2,67.2,63.4,90,79,63,30.14,30.04,13,1,14,0.00
2013-8-12,89.0,77.3,68.0,75.4,70.4,64.5,92,81,60,30.06,29.94,9,0,9,0.13
2013-8-13,85.8,78.1,72.4,78.3,72.0,68.4,92,83,60,29.94,29.73,23,2,23,0.11
2013-8-14,77.5,70.1,60.2,71.1,57.2,50.6,89,66,46,30.08,29.77,23,4,24,0.06
2013-8-15,80.0,66.5,54.1,56.0,51.9,48.8,87,64,39,30.17,30.07,12,1,12,0.00
2013-8-16,81.0,67.4,53.2,62.9,54.1,49.1,92,67,38,30.22,30.14,12,0,12,0.00
2013-8-17,80.3,69.2,57.0,63.5,58.8,52.8,90,72,50,30.28,30.20,18,2,18,0.00
2013-8-18,79.0,71.3,65.2,65.9,61.9,57.4,89,74,59,30.25,30.13,21,3,21,0.00
2013-8-19,78.4,70.9,61.9,67.2,63.0,56.3,90,77,60,30.17,30.08,12,1,12,0.00
2013-8-20,88.6,76.7,64.6,71.9,67.5,61.2,91,76,51,30.17,30.09,12,0,12,0.00
2013-8-21,91.6,78.0,67.5,76.1,69.8,64.5,92,78,54,30.21,30.11,15,1,15,0.00
2013-8-22,88.0,77.0,70.3,76.6,70.7,66.5,92,82,63,30.11,29.93,15,1,15,0.10
2013-8-23,84.0,74.8,68.3,69.9,65.8,62.5,91,75,53,30.09,29.90,17,2,17,0.01
2013-8-24,79.8,69.7,61.2,68.0,61.7,56.2,90,77,58,30.35,30.09,20,3,20,0.00
2013-8-25,83.9,68.0,53.2,66.0,52.9,39.0,91,65,27,30.43,30.30,11,0,11,0.01
2013-8-26,86.3,73.5,59.4,66.7,62.1,54.1,87,70,51,30.31,29.99,19,2,19,0.00
2013-8-27,93.0,81.0,71.8,70.1,67.8,65.7,84,67,45,29.99,29.87,16,2,16,0.00
2013-8-28,83.8,73.4,67.3,76.2,69.6,63.6,92,88,76,29.92,29.83,18,0,18,1.64
2013-8-29,78.9,73.4,68.1,72.3,68.4,64.2,92,85,70,30.04,29.85,25,4,25,0.01
2013-8-30,81.8,73.2,65.9,71.1,67.7,63.2,92,84,67,30.06,29.93,15,1,15,0.00
2013-8-31,88.2,78.2,69.1,76.0,71.5,65.3,91,81,64,29.95,29.84,20,2,21,0.00
2013-9-1,89.0,80.3,75.8,77.8,74.2,71.3,90,83,59,29.88,29.81,15,1,16,0.00
2013-9-2,86.8,78.8,74.4,76.9,73.6,71.5,92,85,65,29.82,29.75,11,0,12,0.02
2013-9-3,89.7,78.3,68.4,77.6,68.7,59.1,92,75,50,29.93,29.74,16,1,16,0.00
2013-9-4,82.0,70.6,60.2,63.7,58.4,51.8,85,68,39,30.05,29.92,15,1,16,0.00
2013-9-5,85.2,72.1,61.2,67.9,60.7,48.6,92,70,53,30.13,29.99,16,1,16,0.00
2013-9-6,76.7,63.9,54.2,54.7,50.5,45.9,81,64,40,30.25,30.13,13,2,15,0.00
2013-9-7,81.2,65.3,48.8,60.8,52.4,45.0,92,68,37,30.16,29.95,11,0,11,0.00
2013-9-8,87.8,74.9,63.4,69.5,63.7,50.6,89,70,54,30.06,29.84,19,2,19,0.00
2013-9-9,76.3,68.0,55.6,64.5,57.0,47.8,85,69,55,30.22,30.06,13,2,13,0.00
2013-9-10,86.4,77.4,69.3,73.8,69.5,64.0,85,78,66,30.22,30.11,15,2,15,0.00
2013-9-11,93.6,80.6,72.0,76.9,71.4,67.3,89,75,57,30.17,30.04,17,1,17,0.00
2013-9-12,89.8,78.6,72.7,75.0,71.0,68.3,89,79,61,30.04,29.73,21,2,21,0.17
2013-9-13,79.7,72.6,62.2,70.0,63.4,51.8,92,75,47,29.88,29.67,18,2,18,0.01
2013-9-14,71.3,60.5,50.4,52.4,49.2,44.5,83,68,49,30.17,29.88,17,3,19,0.00
2013-9-15,75.9,60.4,43.1,58.2,48.8,39.2,90,69,41,30.25,30.13,16,1,19,0.00
2013-9-16,75.7,66.5,58.3,64.8,58.3,52.2,86,76,59,30.21,30.06,20,2,20,0.01
2013-9-17,65.7,57.8,47.0,52.2,45.1,39.6,78,64,45,30.41,30.21,21,6,23,0.00
2013-9-18,70.5,55.7,42.0,51.4,45.2,37.9,89,71,48,30.36,30.22,11,0,11,0.00
2013-9-19,77.0,59.7,44.5,60.0,49.6,40.5,91,72,48,30.22,30.11,11,0,12,0.00
2013-9-20,79.8,63.1,48.6,64.2,54.4,44.8,92,75,52,30.12,30.02,12,0,12,0.00
2013-9-21,79.9,67.4,52.4,68.6,60.4,48.4,92,80,53,30.03,29.72,18,1,18,0.17
2013-9-22,75.2,66.0,54.0,67.1,56.2,45.8,91,73,46,29.92,29.67,20,3,20,0.39
2013-9-23,70.0,56.6,46.1,48.5,45.1,41.3,84,68,44,30.06,29.92,18,2,18,0.00
2013-9-24,72.8,57.2,45.2,52.6,45.9,40.3,84,69,41,30.08,29.93,14,1,14,0.00
2013-9-28,70.7,63.2,55.7,55.9,53.7,50.5,86,72,59,30.26,30.22,20,2,20,0.00
2013-9-29,71.4,60.1,50.2,60.5,51.0,44.9,91,74,48,30.22,30.07,19,2,20,0.01
2013-9-30,74.7,59.5,49.4,59.0,51.9,44.6,91,78,53,30.08,30.01,12,1,13,0.00
2013-10-1,81.4,64.6,50.0,64.8,56.2,46.2,92,76,53,30.05,29.94,15,1,15,0.01
2013-10-2,84.7,71.2,60.4,65.3,61.5,57.1,91,74,51,30.05,29.98,12,1,18,0.01
2013-10-3,79.7,70.2,61.9,65.7,62.5,58.1,90,78,55,30.12,30.05,11,0,12,0.00
2013-10-4,88.0,71.6,59.8,71.2,62.5,56.8,92,76,44,30.09,30.01,12,0,12,0.00
2013-10-5,84.9,70.8,64.9,71.6,65.6,61.3,92,85,63,30.08,30.03,13,1,13,0.00
2013-10-6,83.6,73.3,67.8,74.0,68.1,65.4,92,85,66,30.08,30.01,13,1,13,0.01
2013-10-7,80.3,70.8,61.4,71.8,66.4,58.4,90,86,72,30.03,29.85,28,2,28,0.34
2013-10-8,65.7,58.7,52.2,58.4,50.7,46.8,90,76,60,30.28,30.03,20,3,20,0.00
2013-10-9,64.1,60.2,54.7,55.6,52.4,48.8,87,76,68,30.30,30.19,34,9,34,0.07
2013-10-10,60.1,59.8,59.5,57.0,56.4,55.6,90,89,87,30.19,30.11,28,12,29,0.32
2013-10-21,65.3,56.9,49.0,47.0,45.3,41.0,81,67,43,30.10,30.01,11,0,11,0.00
2013-10-22,68.5,56.8,47.2,56.1,47.9,43.1,91,74,52,30.01,29.79,15,1,15,0.00
2013-10-23,53.8,48.8,42.3,48.2,42.8,36.6,90,80,62,29.84,29.62,12,1,14,0.42
2013-10-24,54.9,45.2,38.6,39.0,33.8,27.8,83,67,42,30.10,29.83,28,2,28,0.01
2013-10-25,54.6,44.5,36.5,37.1,33.1,29.1,79,66,49,30.30,30.10,24,1,24,0.00
2013-10-26,58.8,45.8,31.8,42.5,33.6,27.8,89,66,39,30.30,29.96,21,1,21,0.00
2013-10-27,59.0,50.8,36.8,39.8,35.5,30.4,78,58,40,30.18,29.92,23,1,23,0.00
2013-10-28,63.9,47.5,32.3,49.3,39.2,27.6,89,75,50,30.28,30.16,8,0,8,0.00
2013-10-29,63.4,51.5,43.6,51.5,44.4,39.0,87,78,62,30.37,30.28,15,2,17,0.00
2013-10-30,58.0,50.5,43.7,54.8,46.9,40.0,91,88,83,30.35,30.20,2,0,2,0.03
2013-10-31,70.9,60.0,49.4,61.8,55.6,46.3,92,86,72,30.22,29.88,16,1,18,0.02
2013-11-1,68.5,65.1,62.7,64.4,61.4,58.8,91,88,83,29.89,29.65,22,2,23,0.10
2013-11-2,69.5,63.3,54.1,60.9,54.6,44.6,91,75,60,29.83,29.62,12,0,13,0.03
2013-11-3,55.2,48.5,36.4,45.5,36.1,22.9,83,64,42,30.45,29.83,22,4,22,0.00
2013-11-4,49.4,40.0,31.9,33.1,27.4,19.9,77,61,51,30.63,30.44,20,5,20,0.00
2013-11-5,59.8,48.2,37.3,46.3,39.7,30.8,87,74,61,30.62,30.54,13,0,13,0.00
2013-11-6,63.5,61.2,56.2,54.1,52.6,50.6,86,74,65,30.37,30.23,13,1,13,0.00
2013-11-9,52.6,49.3,46.7,37.4,33.2,27.9,66,55,42,30.27,30.10,14,2,14,0.00
2013-11-12,40.6,35.8,31.0,31.1,18.1,14.7,76,50,42,30.34,30.13,26,9,26,0.00
2013-11-13,30.9,28.9,27.2,16.3,15.8,15.0,61,58,54,30.35,30.34,6,0,6,0.00
2013-11-19,50.9,43.5,35.3,30.2,26.2,22.1,60,52,44,30.37,30.09,24,5,26,0.00
2013-11-20,45.2,36.7,31.9,30.3,24.5,20.9,74,62,48,30.57,30.35,23,4,24,0.00
2013-11-21,56.7,43.4,31.8,42.3,34.9,24.6,85,73,56,30.57,30.40,11,0,11,0.00
2013-11-22,58.9,52.4,45.4,53.3,48.4,41.1,89,86,80,30.40,29.96,9,0,9,0.08
2013-11-23,54.2,45.4,34.0,51.0,30.8,12.4,89,59,33,30.09,29.96,31,5,33,0.01
2013-11-24,33.9,27.6,23.2,13.6,2.5,-3.2,49,35,27,30.48,30.07,39,9,39,0.00
2013-11-25,34.4,27.8,21.0,20.4,12.8,7.1,62,54,40,30.57,30.39,15,1,15,0.00
2013-11-26,43.2,38.9,33.0,38.8,25.6,19.4,85,60,48,30.40,30.14,11,0,11,0.06
2013-11-28,38.4,30.6,25.3,23.8,19.8,17.3,81,66,46,30.52,30.33,19,1,19,0.00
2013-11-29,43.0,32.8,24.7,26.7,22.0,18.3,85,66,43,30.74,30.50,14,2,14,0.00
2013-11-30,27.8,26.9,25.8,18.5,17.5,16.3,68,67,66,30.73,30.71,11,4,13,0.00
2013-12-2,49.7,40.2,30.2,41.0,34.6,27.9,92,81,64,29.97,29.87,4,0,4,0.00
2013-12-3,54.4,39.8,28.9,48.6,35.9,26.9,98,87,62,30.02,29.86,12,0,13,0.00
2013-12-4,56.0,45.2,33.6,51.2,42.7,32.1,99,91,78,30.11,30.01,8,0,9,0.00
2013-12-5,56.1,52.4,48.3,55.5,51.7,47.4,99,97,95,30.11,29.96,17,1,17,0.01
2013-12-6,58.4,56.5,52.1,58.4,56.2,51.6,100,99,98,30.12,29.92,8,0,8,0.04
2013-12-7,57.1,46.6,28.4,56.8,43.8,25.6,99,90,73,30.51,30.03,23,1,23,0.00
2013-12-8,40.7,30.3,27.4,40.2,27.3,21.8,98,89,78,30.58,30.25,18,5,18,0.51
2013-12-9,44.3,39.0,34.3,44.0,38.7,33.8,99,99,98,30.26,30.01,18,2,18,0.99
2013-12-10,34.3,32.1,29.8,33.7,30.9,24.6,98,96,77,30.21,29.90,16,1,16,0.14
2013-12-11,31.3,30.4,29.3,24.6,23.9,23.0,78,76,76,30.29,30.21,12,1,12,0.00
2013-12-12,29.0,24.9,21.3,22.9,17.4,12.3,92,74,56,30.39,30.24,26,8,26,0.00
2013-12-13,38.9,31.8,25.2,24.9,22.0,15.4,90,68,49,30.34,30.20,25,4,25,0.01
2013-12-14,52.7,38.0,27.2,52.4,35.5,24.7,99,91,75,30.39,29.62,20,1,21,0.97
2013-12-15,54.8,39.9,32.5,54.5,35.7,24.4,99,86,69,29.93,29.55,28,5,28,0.11
2013-12-16,36.0,31.1,25.0,28.2,21.0,15.4,81,66,54,30.23,29.92,25,4,25,0.00
2013-12-17,52.4,37.4,28.5,44.7,31.8,16.8,94,81,61,30.21,29.91,16,1,17,0.00
2013-12-18,38.9,30.7,23.6,28.8,24.4,20.1,94,78,54,30.23,29.91,28,3,28,0.03
2013-12-19,52.2,39.4,22.5,35.9,29.7,20.3,94,71,52,30.24,30.08,22,2,22,0.00
2013-12-20,56.5,50.7,46.4,49.3,40.7,32.7,93,70,54,30.13,30.03,20,2,23,0.00
2013-12-21,66.3,57.0,51.4,55.4,51.4,45.4,97,82,66,30.05,29.95,25,2,25,0.00
2013-12-22,67.0,57.1,52.8,64.2,56.0,51.6,99,96,86,30.02,29.92,28,3,28,0.09
2013-12-23,58.4,54.1,41.9,57.8,53.0,39.5,98,96,90,30.15,29.92,15,0,15,0.03
2013-12-24,41.9,36.6,26.5,39.7,28.4,14.9,92,73,56,30.39,30.11,31,6,31,0.01
2013-12-25,33.1,25.3,20.3,18.4,15.4,12.7,87,67,44,30.54,30.38,18,1,19,0.00
2013-12-26,40.4,28.7,19.4,30.6,23.2,16.3,93,81,55,30.42,30.22,17,0,17,0.00
2013-12-27,44.7,32.5,22.5,27.9,24.2,20.5,100,74,45,30.43,30.31,15,0,15,0.02
2013-12-28,55.3,41.7,31.0,35.2,31.3,26.7,90,69,42,30.33,30.12,21,1,21,0.00
2013-12-29,57.1,45.1,39.3,57.1,41.3,31.6,100,87,55,30.12,29.46,33,3,33,1.09
2013-12-30,48.4,39.7,31.0,41.7,34.6,24.6,96,83,67,30.17,29.77,21,2,21,0.01
2013-12-31,40.9,32.7,26.4,32.1,23.2,18.9,78,68,57,30.34,30.10,21,2,21,0.00
2014-1-1,42.7,31.0,21.7,32.8,24.3,16.8,94,77,55,30.43,30.17,16,1,16,0.00
2014-1-2,36.2,32.0,26.7,35.2,30.6,25.4,97,95,92,30.17,29.53,18,5,18,0.00